Regional Weather Roundup
Issued by NWS Sterling, VA

Home | Current Version | Previous Version | Graphics & Text | Print | Product List | Glossary On
Versions: 1 2 3 4 5 6 7 8 9 10 11 12 13 14 15 16 17 18 19 20 21 22 23 24 25 26 27 28 29 30 31 32 33 34 35 36 37 38 39 40 41 42 43 44 45 46 47 48 49 50
362
ASUS41 KLWX 212111
RWRLWX

REGIONAL WEATHER ROUNDUP
NATIONAL WEATHER SERVICE BALTIMORE MD/WASHINGTON DC
500 PM EDT SAT APR 21 2018

Note: "FAIR" indicates few or no clouds below 12,000 feet
with no significant weather and/or obstructions to visibility.
 TC=TEMPERATURE CELSIUS

 * =Non NWS site. Station does not report precipitation (e.g. rain,
    snow, etc.), thunder, or fog.

DCZ001-MDZ009-015-VAZ040>042-051-053>054-212200-
WASHINGTON METRO

CITY           SKY/WX    TMP DP  RH WIND       PRES   REMARKS
WASHINGTON NAT PTSUNNY   60  31  33 SE5       30.35F
DULLES         CLOUDY    61  23  23 W3        30.34F
ANDREWS AFB    FAIR      60  26  27 NW8       30.33F
FT BELVOIR     FAIR      60  28  29 SE8       30.34F
QUANTICO       FAIR      60  34  37 E3        30.36F
COLLEGE PARK*  FAIR      59  24  26 CALM      30.34F
LEESBURG*      FAIR      61  32  33 NW3       30.35F
MANASSAS*      FAIR      62  28  27 S7        30.34F
GAITHERSBURG*  FAIR      59  27  29 NW8       30.34F

$$

MDZ006>007-011-014-212200-
BALTIMORE METRO

CITY           SKY/WX    TMP DP  RH WIND       PRES   REMARKS
BWI AIRPORT    PTSUNNY   60  25  26 W6        30.33F
MD SCIENCE CTR   N/A     63  25  23 MISG      30.34F
MARTIN STATE   PTSUNNY   57  37  47 SE8       30.36F
ANNAPOLIS      FAIR      55  36  48 SE9       30.35F
FORT MEADE*    FAIR      59  27  29 N5        30.36F

$$

MDZ012-015-019>023-212200-
MARYLAND EASTERN SHORE

CITY           SKY/WX    TMP DP  RH WIND       PRES   REMARKS
OCEAN CITY     FAIR      50  36  58 S8        30.38F
SALISBURY      FAIR      60  30  32 W7        30.35F
BAY BRIDGE AP* FAIR      57  30  35 SE6       30.36S
CAMBRIDGE*     SUNNY     57  28  33 N7        30.36F
EASTON*        MOSUNNY   59  27  29 W7        30.39F

$$

MDZ017>025-212200-
SOUTHERN MARYLAND

CITY           SKY/WX    TMP DP  RH WIND       PRES   REMARKS
PATUXENT RIVER FAIR      57  35  43 SE12G23   30.36F
ST INIGOES     FAIR      57  34  41 VRB5      30.36F
LEONARDTOWN*   FAIR      59  30  33 SW7       30.37S

$$

MDZ003>005-212200-
NORTH CENTRAL MARYLAND

CITY           SKY/WX    TMP DP  RH WIND       PRES   REMARKS
FREDERICK*     SUNNY     61  18  18 CALM      30.36F
HAGERSTOWN APT FAIR      59  23  25 CALM      30.33F
WESTMINSTER*   FAIR      61  28  29 N5        30.33F

$$

MDZ501>502-212200-
WESTERN MARYLAND

CITY           SKY/WX    TMP DP  RH WIND       PRES   REMARKS
OAKLAND*       FAIR      52  14  22 W3        30.31F
CUMBERLAND*    FAIR      63  23  22 CALM      30.35F

$$

VAZ025>031-212200-
SHENANDOAH VALLEY

CITY           SKY/WX    TMP DP  RH WIND       PRES   REMARKS
WINCHESTER*    FAIR      59  27  29 E5        30.34F
FRONT ROYAL*   FAIR      61  28  29 NE6       30.31F
LURAY*         FAIR      63  23  22 S3        30.31S
NEW MARKET*    FAIR      61  24  24 CALM      30.28F
STAUNTON*      FAIR      62  29  28 E6        30.32F
WAYNESBORO*    FAIR      64  25  23 W3        30.30F

$$

WVZ021-048>050-054>055-212200-
EASTERN WEST VIRGINIA PANHANDLE

CITY           SKY/WX    TMP DP  RH WIND       PRES   REMARKS
MARTINSBURG    FAIR      60  26  27 NE3       30.32F
PETERSBURG*    FAIR      65  26  23 CALM      30.29S

$$

VAZ036>039-050-212200-
CENTRAL FOOTHILLS

CITY           SKY/WX    TMP DP  RH WIND       PRES   REMARKS
CHARLOTTESVILL FAIR      66  28  24 SE7       30.31F
CULPEPER*      FAIR      62  25  24 SW5       30.35S
ORANGE*        FAIR      63  28  27 CALM      30.32F
GORDONSVILLE*  FAIR      64  28  25 CALM      30.32F
WARRENTON*     FAIR      63  21  19 NE5       30.34S

$$

VAZ055>057-212200-
NORTH AND CENTRAL PIEDMONT

CITY           SKY/WX    TMP DP  RH WIND       PRES   REMARKS
FREDERICKSBRG* FAIR      65  31  28 N3        30.33F
STAFFORD*      FAIR      64  23  21 CALM      30.38S

$$

NCZ024-NYZ072-PAZ021-071-VAZ022-071-212200-
OTHER REGIONAL OBSERVATIONS

CITY           SKY/WX    TMP DP  RH WIND       PRES   REMARKS
NEW YORK CITY  FAIR      61  20  20 VRB7      30.28F
PHILADELPHIA   CLOUDY    59  25  27 NW10      30.32S
PITTSBURGH     CLOUDY    55  19  24 E6        30.34F
ROANOKE        FAIR      66  30  26 SE10      30.32F
RICHMOND       FAIR      65  28  24 CALM      30.34F
RALEIGH        FAIR      68  36  30 CALM      30.33F

$$

ANZ530>537-212200-
MARINE OBSERVATIONS

STATION/POSITION TIME  TEMP    WIND        PRES
                       AIR SEA DIR/SP/G
                 (UTC) (F)     (DEG/KT/KT) (MB)
THOMAS PT LIGHT  2100   52 51  150/  5/  6 1028.8F
BALT KEY BRIDGE  2042   53     120/ 10/ 12 1027.5F
COVE POINT       2042   51     160/ 10/ 11 1028.9F
LEWISETTA        2042   52 55  120/  9/ 10 1028.5F
SOLOMONS ISLAND  2042   53 54  130/  8/  9 1027.9F
PINEY POINT      2042          160/  9/ 10   N/A

$$





USA.gov is the U.S. government's official web portal to all federal, state and local government web resources and services.